Regional Weather Roundup
Issued by NWS Sioux Falls, SD

Home | Current Version | Previous Version | Graphics & Text | Print | Product List | Glossary On
Versions: 1 2 3 4 5 6 7 8 9 10 11 12 13 14 15 16 17 18 19 20 21 22 23 24 25 26 27 28 29 30 31 32 33 34 35 36 37 38 39 40 41 42 43 44 45 46 47 48 49 50
000
ASUS43 KFSD 011810
RWRFSD

WEATHER ROUNDUP FOR SE SOUTH DAKOTA/SW MINNESOTA/NW IOWA
NATIONAL WEATHER SERVICE SIOUX FALLS SD
100 PM CDT SUN MAY 01 2016

NOTE: "FAIR" INDICATES FEW OR NO CLOUDS BELOW 12,000 FEET WITH NO
SIGNIFICANT WEATHER AND OR OBSTRUCTIONS TO VISIBILITY.


SDZ038>040-050-052>070-011900-
SOUTHEAST SOUTH DAKOTA

CITY           SKY/WX    TMP DP  RH WIND       PRES   REMARKS
BROOKINGS      MOSUNNY   52  33  48 NE14G21   30.18F
CHAMBERLAIN    SUNNY     56  33  42 N15G24    30.24S
6HR MIN TEMP:  38; 6HR MAX TEMP:  56;

HURON          SUNNY     56  33  42 NE16      30.22F
6HR MIN TEMP:  34; 6HR MAX TEMP:  56;

MADISON        FAIR      50  41  71 NE20G26   30.19S
MITCHELL       MOSUNNY   54  38  54 N17G23    30.22F
6HR MIN TEMP:  38; 6HR MAX TEMP:  55;

SIOUX FALLS    PTSUNNY   52  41  66 N14       30.17F
6HR MIN TEMP:  40; 6HR MAX TEMP:  53; 6HR PCP:  0.01;

WINNER         FAIR      55  34  45 N18G31    30.25F
YANKTON        CLOUDY    48  39  71 NW10      30.19F
$$

MNZ071-072-080-081-089-090-097-098-011900-
SOUTHWEST MINNESOTA

CITY           SKY/WX    TMP DP  RH WIND       PRES   REMARKS
FAIRMONT       CLOUDY    52  39  62 NE15      30.12F
JACKSON        CLOUDY    52  39  62 NE15G22   30.13F
LUVERNE        CLOUDY    48  37  66 N10G20    30.17S
MARSHALL       MOSUNNY   55  33  43 NE17      30.18F
6HR MIN TEMP:  36; 6HR MAX TEMP:  55;

MONTEVIDEO     SUNNY     57  34  41 E15G22    30.21S
REDWOOD FALLS  SUNNY     57  31  37 NE8       30.16F
TRACY          CLOUDY    56  39  53 NE13G21   30.17S
WINDOM         SUNNY     54  41  62 N15       30.14F
WORTHINGTON    CLOUDY    49  41  74 N16G23    30.15F
$$

IAZ001>003-012>014-020>022-031-032-NEZ013-014-SDZ071-011900-
NORTHWEST IOWA

CITY           SKY/WX    TMP DP  RH WIND       PRES   REMARKS
CHEROKEE       LGT RAIN  46  44  92 N15       30.13S
DENISON        MIX PCPN  45  43  93 N13G21    30.09R
ESTHERVILLE    CLOUDY    49  42  77 N13       30.12F
LE MARS        PTSUNNY   48  41  76 N14G21    30.16F
ORANGE CITY    CLOUDY    46  41  81 N12       30.15S
SHELDON        CLOUDY    48  43  81 N14G24    30.14S
SIOUX CITY     LGT RAIN  47  42  83 N15       30.16S
6HR MIN TEMP:  44; 6HR MAX TEMP:  47; 6HR PCP:  0.22;

SPENCER        CLOUDY    49  41  74 N15       30.13F
6HR MIN TEMP:  42; 6HR MAX TEMP:  49; 6HR PCP:  0.01;

STORM LAKE     LGT RAIN  43  41  93 N17G23    30.11F
$$

ABBREVIATIONS USED IN REMARKS
   TC - TEMPERATURE IN CELSIUS
  WCI - WIND CHILL INDEX
   HX - HEAT INDEX
  VSB - VISIBILITY




USA.gov is the U.S. government's official web portal to all federal, state and local government web resources and services.